Theta_e
357 362 365 365 364 363 363 362 362 362 362 361 362 363 363 362 362 364 364 364 363 363 361 358 355 355 357 355 354 357 357 358 358 357 354 352 351 351 353 355 349 347 350
360 362 364 364 364 364 363 362 362 362 362 361 362 362 363 362 362 363 363 363 363 363 360 356 353 354 355 354 354 355 356 356 357 358 355 352 351 351 351 349 348 347 349
359 361 362 363 364 364 362 362 361 361 361 361 361 362 363 362 362 362 362 363 363 361 359 354 353 353 354 353 353 354 354 354 353 355 356 348 346 351 351 349 347 347 347
360 359 360 363 364 364 362 361 361 361 361 361 361 362 363 362 362 362 361 361 361 358 355 353 352 354 354 353 352 353 353 354 356 354 349 349 343 351 351 350 348 346 346
358 360 361 363 363 363 363 361 360 361 361 361 361 361 362 362 361 361 360 359 359 355 353 352 353 356 356 354 354 354 355 355 354 347 341 343 341 351 352 352 350 349 348
357 361 363 363 362 363 362 361 361 361 361 360 361 361 362 362 361 360 360 358 357 356 355 354 356 356 356 356 355 355 353 350 349 336 338 345 341 355 355 354 353 350 349
357 360 362 363 362 363 362 362 361 361 360 360 361 361 361 360 360 360 359 358 356 355 355 354 355 355 355 355 354 351 347 346 338 334 335 343 344 353 355 355 354 353 352
357 359 361 364 362 362 361 360 360 360 359 360 360 360 360 359 359 359 358 357 356 355 354 354 353 352 352 351 349 346 343 344 336 331 329 339 349 354 356 355 354 354 353
358 357 358 361 363 362 361 359 359 359 359 359 358 358 359 359 359 358 357 356 355 353 352 350 350 349 347 345 344 342 342 344 335 331 330 338 353 354 356 355 355 354 354
355 355 356 358 360 360 359 361 359 359 359 358 358 358 358 358 358 357 354 354 354 352 351 348 346 344 342 341 340 341 343 344 333 330 328 332 350 352 354 354 355 355 355
355 353 353 355 356 357 358 360 360 361 359 358 358 358 355 354 353 354 353 355 353 352 350 347 345 343 341 342 342 344 346 331 330 328 329 346 349 352 352 350 351 352 354
349 350 350 352 353 354 358 357 357 357 358 356 355 355 352 350 349 351 351 354 353 351 350 348 345 344 343 330 329 343 336 333 330 327 330 349 350 353 353 352 352 352 352
342 342 347 351 352 351 354 354 354 354 356 353 354 353 349 349 350 349 345 348 344 349 341 342 339 336 332 329 328 329 332 331 330 330 339 351 351 355 355 354 353 354 353
337 344 342 348 349 349 352 354 354 354 353 352 352 352 350 347 347 342 343 341 339 339 335 333 331 330 328 328 327 330 331 331 333 333 340 352 350 352 354 354 354 354 354
329 341 334 345 348 347 350 352 352 353 353 353 353 354 351 347 342 341 340 340 339 335 334 330 329 329 328 328 330 333 336 336 338 341 337 352 350 350 353 355 356 355 355
320 341 343 347 346 344 340 347 348 348 352 352 353 354 352 348 345 342 339 338 338 335 332 330 329 329 329 332 332 334 340 342 343 343 343 345 350 350 352 355 356 357 357
316 336 337 340 340 333 334 345 348 346 348 347 348 350 352 347 344 344 337 340 338 335 332 329 332 332 332 332 332 337 341 343 344 344 344 342 344 350 350 352 353 355 356
320 337 344 340 333 329 339 349 352 347 347 346 345 346 349 349 345 345 339 339 338 334 335 332 330 333 334 332 330 334 342 342 343 343 343 343 341 344 349 351 352 353 354
317 320 336 339 333 332 348 350 351 350 348 346 345 345 346 347 346 345 342 338 340 336 333 337 334 333 330 329 330 331 335 341 342 345 343 340 339 342 342 347 349 350 352
322 325 323 327 347 351 353 350 349 351 349 349 346 345 346 345 348 346 342 339 341 340 336 339 337 335 333 332 332 332 335 338 339 339 339 342 341 343 340 344 343 345 349
318 319 319 321 329 349 346 349 347 347 348 349 348 346 346 346 346 346 343 339 341 338 337 336 336 333 332 333 332 330 332 338 338 342 342 339 340 340 342 343 342 342 342
312 319 320 318 321 336 347 347 350 349 348 350 350 347 347 347 346 345 345 342 342 341 337 337 336 333 333 334 328 325 321 324 333 337 340 340 338 339 341 343 342 342 340
315 318 323 323 323 324 338 346 344 346 345 344 346 349 348 348 347 345 344 343 341 341 339 338 336 333 331 334 332 326 320 317 326 337 338 338 338 339 340 340 338 339 343
315 319 318 327 331 330 329 333 340 339 339 343 345 347 348 348 347 345 344 343 341 340 338 337 338 335 332 331 331 334 335 332 324 324 335 337 338 338 337 339 334 335 340
314 314 319 319 322 323 324 329 328 331 337 340 342 341 344 348 348 347 345 343 341 339 337 338 338 340 337 332 331 332 334 333 331 326 323 329 332 333 332 330 331 333 338
310 312 313 316 317 320 320 321 324 327 329 333 336 338 340 343 346 347 348 345 343 340 340 340 340 341 340 336 335 335 332 331 329 326 322 322 325 325 328 330 330 331 334
Wind_Speed
9 14 20 22 22 21 20 19 17 17 17 17 17 17 16 16 16 16 17 16 16 15 15 14 13 12 12 13 14 13 11 11 11 13 13 13 14 11 11 6 11 9 10
17 13 21 21 23 22 20 19 17 17 17 17 17 16 16 16 15 15 15 15 14 14 14 13 12 12 12 12 11 9 9 8 8 9 11 10 12 13 13 13 11 8 9
18 12 15 22 22 22 21 19 18 17 17 17 16 16 16 15 15 14 14 14 13 14 13 12 12 13 12 11 8 6 7 7 6 5 6 4 4 12 14 12 11 10 8
17 12 10 19 22 22 20 19 18 18 17 17 16 16 16 15 14 14 13 12 12 12 12 12 12 11 11 9 6 4 5 5 4 2 2 4 6 9 13 12 10 9 7
16 13 11 16 19 22 21 19 17 18 18 17 16 16 15 15 15 14 13 13 12 13 12 12 12 10 9 8 5 2 3 5 5 5 3 6 6 9 11 11 10 8 8
15 14 15 15 17 20 20 20 18 18 19 17 17 16 14 14 14 13 12 11 11 11 11 11 10 9 7 6 5 1 2 5 8 6 5 8 7 11 10 10 11 9 7
13 13 13 16 17 19 19 19 19 18 18 18 17 17 15 14 13 12 12 11 10 10 10 10 8 7 7 5 3 1 3 6 5 5 4 4 7 12 11 10 9 8 8
16 13 13 15 16 18 19 19 19 17 18 18 18 17 16 15 14 13 12 11 10 10 9 9 8 7 6 4 3 2 4 5 6 5 4 3 9 11 11 10 9 8 8
18 15 11 10 12 15 17 18 17 18 18 17 16 16 15 14 13 12 11 10 10 9 9 7 7 7 6 4 3 4 5 7 5 4 5 3 12 12 12 10 9 9 8
17 16 14 12 10 8 9 16 16 17 18 17 17 17 15 13 12 11 11 10 10 8 8 8 7 7 6 6 6 7 7 8 6 6 1 4 11 11 10 10 10 9 9
14 16 16 13 11 9 7 10 13 15 16 18 17 17 13 7 8 9 9 11 11 10 10 9 8 8 8 7 8 9 9 3 6 4 3 9 14 12 10 9 9 8 9
5 12 17 16 14 10 9 8 10 11 8 7 9 10 7 8 7 9 10 14 12 11 11 10 10 9 7 4 4 9 4 5 5 6 4 15 14 14 13 12 11 9 9
8 6 6 10 16 13 9 8 6 6 6 6 9 10 6 6 7 6 4 6 5 10 4 6 6 4 6 5 5 4 5 5 5 4 6 15 14 13 13 12 11 10 11
9 22 7 8 5 12 6 7 8 7 7 7 9 11 8 5 7 5 6 6 5 5 7 6 4 5 6 7 7 6 7 6 5 4 6 15 13 13 12 12 12 12 12
10 13 18 3 1 7 4 9 8 8 9 10 11 13 10 7 6 7 8 8 8 6 7 7 6 6 7 7 6 8 8 8 7 4 3 14 11 11 11 12 12 11 11
3 15 23 22 16 11 11 8 10 10 10 10 11 13 15 11 9 10 8 9 9 9 8 7 8 7 7 6 8 7 7 6 6 5 4 6 12 12 12 11 11 11 13
7 14 19 18 18 17 23 25 11 8 10 11 9 13 18 17 11 12 10 9 10 10 11 7 7 6 6 6 7 6 6 7 6 6 4 4 5 11 11 11 10 11 12
4 14 11 11 15 18 18 17 12 13 10 11 12 10 14 14 18 13 11 11 11 8 8 10 8 6 6 6 5 5 6 7 7 7 5 5 4 4 8 12 12 11 11
3 6 14 16 13 14 17 13 10 10 9 10 9 8 13 13 12 9 11 12 9 11 11 10 8 5 5 5 5 5 5 6 7 6 7 7 6 4 4 9 12 9 11
5 4 3 6 13 17 11 7 4 5 6 5 9 9 10 12 9 6 7 6 5 6 9 11 14 8 5 5 5 6 5 6 5 6 6 5 5 6 6 5 5 5 12
4 4 1 2 3 4 4 8 7 6 6 6 4 7 7 9 13 10 9 7 7 10 5 7 3 7 5 5 3 4 4 7 7 6 5 5 5 6 6 6 5 5 5
5 6 5 5 4 5 4 4 4 4 5 8 6 6 12 13 17 16 16 13 12 9 9 10 11 7 8 10 8 1 2 4 4 5 5 5 8 5 5 6 6 7 4
8 7 5 3 6 4 4 3 1 2 2 3 5 10 13 14 17 18 18 15 16 14 14 14 13 16 12 7 12 7 3 6 2 2 6 5 7 5 5 5 4 4 4
8 9 9 8 5 7 5 1 4 5 7 6 9 10 10 15 17 17 17 18 17 11 14 14 13 12 11 10 2 7 3 4 5 1 1 4 5 5 6 4 1 3 3
8 7 7 8 8 7 8 5 3 4 5 7 6 9 12 12 14 17 19 20 18 14 17 15 16 14 13 11 11 4 2 2 2 3 2 4 1 4 4 4 3 2 3
6 7 7 6 4 5 5 5 4 5 7 5 8 9 10 11 11 17 18 18 14 13 11 14 12 16 13 13 11 9 10 11 9 4 2 3 4 2 3 4 4 4 5
Wind_Direction
141 144 142 135 130 129 130 129 128 126 121 115 109 104 101 99 96 97 104 107 109 109 107 104 106 105 100 96 89 85 87 91 97 100 99 104 101 88 63 111 85 86 80
133 147 144 137 134 133 133 132 132 129 124 122 118 114 110 108 106 106 108 109 111 111 111 112 109 104 100 96 93 93 91 90 89 106 109 106 109 102 85 84 90 84 76
130 142 145 140 137 135 136 137 137 134 130 127 124 121 118 117 116 112 110 113 116 120 120 120 119 116 111 107 105 102 101 95 90 81 127 121 107 113 107 102 100 99 93
126 136 148 144 140 138 139 140 143 137 133 130 130 127 126 123 120 118 118 120 122 126 127 129 128 124 122 118 115 99 77 66 44 17 241 190 142 134 118 115 114 114 106
129 131 151 149 144 141 142 142 145 140 137 137 136 133 133 132 130 132 134 134 136 138 139 136 132 130 128 126 120 98 42 15 339 324 341 134 147 144 134 131 125 115 100
132 135 148 151 149 145 145 146 147 144 141 141 141 138 139 140 141 139 136 136 141 141 141 139 136 138 142 143 146 144 4 350 342 344 2 150 144 151 153 140 133 131 129
128 138 148 153 152 150 149 150 147 147 145 144 146 144 144 146 145 143 142 143 148 146 142 142 141 147 156 156 164 213 324 339 327 317 349 181 145 157 159 153 148 149 149
136 142 152 153 153 154 152 154 150 148 149 149 151 150 151 153 153 151 150 150 152 151 150 149 152 162 170 178 195 247 300 318 323 309 314 198 159 167 167 164 165 170 174
140 140 146 152 153 158 155 156 156 152 153 152 152 150 152 155 155 154 152 152 154 155 152 155 161 170 175 204 235 268 283 293 295 286 306 174 177 180 174 174 181 192 194
147 146 150 150 150 154 160 156 159 158 157 155 155 153 154 156 155 156 154 155 156 156 156 164 178 184 190 210 233 249 256 268 274 279 201 221 198 176 180 183 193 199 208
154 153 152 150 152 153 152 161 156 161 162 158 158 155 149 152 156 160 164 160 161 163 170 179 191 195 202 223 241 255 261 260 271 258 246 206 196 177 179 189 203 207 213
156 161 156 152 153 161 169 163 170 171 158 160 156 157 158 157 169 174 178 169 171 174 178 186 197 205 213 222 232 248 236 251 254 256 243 196 203 181 182 190 208 206 214
125 46 325 165 156 167 171 159 171 176 162 163 165 160 175 173 178 176 167 174 167 181 180 192 201 207 210 215 236 233 224 234 248 254 246 190 205 190 194 194 203 210 216
149 148 161 348 282 173 133 161 168 170 175 175 174 174 175 187 185 164 166 173 176 181 186 192 201 214 226 227 216 246 228 225 240 243 205 196 202 199 200 208 211 210 223
133 140 142 195 320 16 276 165 175 183 182 182 180 177 179 185 177 168 179 176 185 183 196 195 197 208 218 230 229 224 220 221 226 203 186 207 202 212 211 216 222 223 226
124 163 170 171 156 135 307 243 187 188 190 186 193 185 180 186 185 181 186 189 194 188 196 197 197 205 215 210 234 236 244 249 243 246 191 201 206 216 219 223 230 229 228
260 146 172 169 149 137 160 249 203 185 181 189 203 196 185 180 191 184 185 194 200 189 182 193 210 199 200 217 229 237 247 245 245 225 229 196 212 226 222 227 230 239 236
136 146 154 172 177 188 194 206 187 189 186 205 183 198 202 209 186 188 195 198 182 200 202 185 200 206 191 193 221 231 230 231 242 242 223 237 211 211 212 223 227 234 241
201 156 160 184 203 208 212 201 184 180 185 190 196 192 195 197 205 186 201 213 200 192 187 192 185 191 182 199 205 244 237 229 228 224 224 217 238 202 206 213 222 231 246
82 85 70 120 192 199 207 214 199 187 180 175 196 197 181 196 194 190 209 234 229 203 216 203 182 174 171 186 221 234 239 235 223 204 211 207 204 205 225 208 204 228 242
142 123 86 4 80 140 202 196 219 215 209 206 193 191 175 200 204 190 200 197 195 211 204 217 185 165 182 185 135 260 260 242 221 197 195 212 224 227 226 212 205 212 233
209 189 179 239 254 151 172 196 203 204 219 221 210 206 204 199 203 208 208 209 205 201 188 199 203 178 195 187 195 140 231 313 272 222 204 202 216 221 227 218 218 230 248
46 356 314 257 238 242 180 172 216 261 295 244 240 228 224 211 207 211 210 210 212 205 204 199 203 199 202 200 192 154 165 213 197 238 217 208 219 212 209 208 228 283 265
27 29 34 26 352 326 341 343 232 212 237 236 238 239 234 221 208 208 208 211 215 211 215 214 207 204 203 207 131 202 173 156 185 215 302 231 223 205 206 218 219 290 313
42 47 33 33 38 22 15 360 299 270 245 246 250 254 249 243 224 217 211 211 211 214 217 213 207 202 200 196 205 171 147 167 162 130 204 239 271 230 219 217 253 243 228
45 30 21 46 0 350 345 324 351 311 287 280 269 256 258 255 248 226 214 222 209 227 222 215 201 204 197 207 203 194 195 209 214 159 146 228 203 262 239 233 228 234 236